Weather History for KCOD - October, 2012

Change the Weather History Date:

Thursday, October 4, 2012

  Actual Average (KGEY) Record (KGEY)
Temperature  
Mean Temperature 36 °F 50 °F  
Max Temperature 41 °F 65 °F 86 °F (2010)
Min Temperature 30 °F 36 °F 23 °F (1999)
Degree Days  
Heating Degree Days 30 14  
Month to date heating degree days 55  
Since 1 July heating degree days 286  
Cooling Degree Days 0 0  
Month to date cooling degree days 0  
Year to date cooling degree days 669  
Moisture  
Dew Point 28 °F    
Average Humidity 78    
Maximum Humidity 93    
Minimum Humidity 53    
Precipitation  
Precipitation 0.00 in 0.03 in 0.51 in (2005)
Month to date precipitation 0.11  
Year to date precipitation 6.44  
Sea Level Pressure  
Sea Level Pressure 30.30 in    
Wind  
Wind Speed 6 mph (NNE)    
Max Wind Speed 15 mph    
Max Gust Speed -    
Visibility 10 miles    
Events      
T = Trace of Precipitation, MM = Missing Value Source: NWS Daily Summary

Daily Weather History Graph

Daily Weather History Graph

Search for Another Location

Airport or City:

Trip Planner

Search our weather history database for the weather conditions in past years. The results will help you decide how hot, cold, wet, or windy it might be!

Date:

Astronomy

Oct. 04, 2012 Rise Set
Actual Time 7:18 AM MDT 6:50 PM MDT
Civil Twilight 6:49 AM MDT 7:19 PM MDT
Nautical Twilight 6:15 AM MDT 7:52 PM MDT
Astronomical Twilight 5:41 AM MDT 8:26 PM MDT
Moon 9:17 PM MDT (10/4) 11:48 AM MDT (10/4)
Length of Visible Light 12h 30m
Length of Day
11h 31m
Waning Gibbous, 81% of the Moon is Illuminated
Oct 4
Waning Gibbous
Oct 8
Last Quarter
Oct 15
New
Oct 21
First Quarter
Oct 29
Full

Hourly Weather History & Observations

Time (MDT) Temp. Windchill Dew Point Humidity Pressure Visibility Wind Dir Wind Speed Gust Speed Precip Events Conditions
12:15 AM 33.8 °F 28.6 °F 28.4 °F 81% 30.40 in 10.0 mi North 5.8 mph - N/A   Overcast
12:35 AM 33.8 °F 29.6 °F 28.4 °F 81% 30.40 in 10.0 mi North 4.6 mph - N/A   Overcast
12:55 AM 33.8 °F 29.6 °F 30.2 °F 87% 30.39 in 10.0 mi North 4.6 mph - N/A   Overcast
1:15 AM 33.8 °F 30.8 °F 30.2 °F 87% 30.39 in 10.0 mi NNE 3.5 mph - N/A   Overcast
1:35 AM 33.8 °F 29.6 °F 30.2 °F 87% 30.39 in 10.0 mi North 4.6 mph - N/A   Overcast
1:55 AM 33.8 °F 28.6 °F 30.2 °F 87% 30.38 in 10.0 mi NNE 5.8 mph - N/A   Overcast
2:15 AM 33.8 °F 29.6 °F 28.4 °F 81% 30.38 in 10.0 mi NE 4.6 mph - N/A   Overcast
2:35 AM 32.0 °F 27.5 °F 28.4 °F 87% 30.37 in 10.0 mi NNE 4.6 mph - N/A   Overcast
2:55 AM 32.0 °F 27.5 °F 28.4 °F 87% 30.36 in 10.0 mi North 4.6 mph - N/A   Overcast
3:15 AM 32.0 °F 28.7 °F 28.4 °F 87% 30.36 in 10.0 mi North 3.5 mph - N/A   Overcast
3:35 AM 32.0 °F 26.4 °F 28.4 °F 87% 30.35 in 10.0 mi ENE 5.8 mph - N/A   Overcast
3:55 AM 32.0 °F 28.7 °F 28.4 °F 87% 30.35 in 10.0 mi ENE 3.5 mph - N/A   Overcast
4:15 AM 32.0 °F 27.5 °F 28.4 °F 87% 30.34 in 10.0 mi ENE 4.6 mph - N/A   Overcast
4:35 AM 32.0 °F 27.5 °F 28.4 °F 87% 30.33 in 10.0 mi ENE 4.6 mph - N/A   Overcast
4:55 AM 32.0 °F 26.4 °F 28.4 °F 87% 30.33 in 10.0 mi NE 5.8 mph - N/A   Overcast
5:15 AM 32.0 °F 25.6 °F 28.4 °F 87% 30.33 in 10.0 mi NE 6.9 mph - N/A   Overcast
5:35 AM 32.0 °F 27.5 °F 28.4 °F 87% 30.33 in 10.0 mi North 4.6 mph - N/A   Overcast
5:55 AM 30.2 °F 24.3 °F 28.4 °F 93% 30.33 in 10.0 mi NE 5.8 mph - N/A   Overcast
6:15 AM 30.2 °F 23.4 °F 28.4 °F 93% 30.33 in 10.0 mi NNE 6.9 mph - N/A   Overcast
6:35 AM 30.2 °F 25.4 °F 28.4 °F 93% 30.33 in 10.0 mi NE 4.6 mph - N/A   Overcast
6:55 AM 30.2 °F 26.7 °F 28.4 °F 93% 30.32 in 10.0 mi NE 3.5 mph - N/A   Overcast
7:15 AM 30.2 °F 25.4 °F 28.4 °F 93% 30.32 in 10.0 mi NNE 4.6 mph - N/A   Overcast
7:36 AM 30.2 °F 25.4 °F 28.4 °F 93% 30.32 in 10.0 mi ENE 4.6 mph - N/A   Overcast
7:55 AM 30.2 °F 25.4 °F 28.4 °F 93% 30.32 in 10.0 mi NE 4.6 mph - N/A   Overcast
8:15 AM 32.0 °F - 28.4 °F 87% 30.32 in 10.0 mi Calm Calm - N/A   Overcast
8:35 AM 32.0 °F 26.4 °F 28.4 °F 87% 30.32 in 10.0 mi NE 5.8 mph - N/A   Overcast
8:55 AM 33.8 °F 29.6 °F 28.4 °F 81% 30.32 in 10.0 mi NNE 4.6 mph - N/A   Overcast
9:15 AM 33.8 °F 27.7 °F 28.4 °F 81% 30.32 in 10.0 mi NNE 6.9 mph - N/A   Overcast
9:36 AM 33.8 °F 27.7 °F 28.4 °F 81% 30.31 in 10.0 mi NNE 6.9 mph - N/A   Overcast
9:55 AM 35.6 °F 29.9 °F 28.4 °F 75% 30.31 in 10.0 mi North 6.9 mph - N/A   Overcast
10:15 AM 35.6 °F 29.9 °F 28.4 °F 75% 30.31 in 10.0 mi NNE 6.9 mph - N/A   Overcast
10:35 AM 35.6 °F - 26.6 °F 70% 30.30 in 10.0 mi Calm Calm - N/A   Scattered Clouds
10:55 AM 37.4 °F - 24.8 °F 60% 30.30 in 10.0 mi Calm Calm - N/A   Clear
11:35 AM 37.4 °F 32.8 °F 24.8 °F 60% 30.29 in 10.0 mi North 5.8 mph - N/A   Partly Cloudy
11:55 AM 37.4 °F 32.1 °F 26.6 °F 65% 30.29 in 10.0 mi NNE 6.9 mph - N/A   Partly Cloudy
12:35 PM 39.2 °F 33.6 °F 26.6 °F 61% 30.27 in 10.0 mi ENE 8.1 mph - N/A   Scattered Clouds
12:55 PM 41.0 °F 35.8 °F 24.8 °F 53% 30.26 in 10.0 mi East 8.1 mph - N/A   Mostly Cloudy
1:15 PM 41.0 °F - 24.8 °F 53% 30.25 in 10.0 mi Calm Calm - N/A   Overcast
1:55 PM 39.2 °F 34.2 °F 26.6 °F 61% 30.24 in 10.0 mi NE 6.9 mph - N/A   Overcast
2:15 PM 39.2 °F 35.0 °F 26.6 °F 61% 30.23 in 10.0 mi North 5.8 mph - N/A   Overcast
2:35 PM 41.0 °F 34.7 °F 26.6 °F 57% 30.23 in 10.0 mi NNE 10.4 mph - N/A   Overcast
2:55 PM 41.0 °F 37.1 °F 26.6 °F 57% 30.23 in 10.0 mi North 5.8 mph - N/A   Overcast
3:15 PM 41.0 °F 34.7 °F 26.6 °F 57% 30.23 in 10.0 mi NNE 10.4 mph - N/A   Overcast
3:35 PM 39.2 °F 33.6 °F 26.6 °F 61% 30.23 in 10.0 mi North 8.1 mph - N/A   Overcast
3:55 PM 39.2 °F 32.0 °F 26.6 °F 61% 30.23 in 10.0 mi NNE 11.5 mph - N/A   Overcast
4:15 PM 39.2 °F 32.5 °F 26.6 °F 61% 30.22 in 10.0 mi NNE 10.4 mph - N/A   Overcast
4:35 PM 39.2 °F 32.5 °F 26.6 °F 61% 30.23 in 10.0 mi North 10.4 mph - N/A   Overcast
4:55 PM 39.2 °F 31.2 °F 26.6 °F 61% 30.23 in 10.0 mi North 13.8 mph - N/A   Overcast
5:15 PM 39.2 °F 30.8 °F 26.6 °F 61% 30.24 in 10.0 mi North 15.0 mph - N/A   Overcast
5:35 PM 37.4 °F 29.3 °F 28.4 °F 70% 30.24 in 10.0 mi North 12.7 mph - N/A   Overcast
5:55 PM 37.4 °F 28.5 °F 28.4 °F 70% 30.25 in 10.0 mi North 15.0 mph - N/A   Overcast
6:15 PM 35.6 °F 28.0 °F 28.4 °F 75% 30.25 in 10.0 mi North 10.4 mph - N/A   Overcast
6:35 PM 35.6 °F 27.1 °F 30.2 °F 81% 30.26 in 10.0 mi North 12.7 mph - N/A   Overcast
6:55 PM 35.6 °F 27.5 °F 30.2 °F 81% 30.26 in 10.0 mi NNW 11.5 mph - N/A   Overcast
7:15 PM 33.8 °F 25.3 °F 30.2 °F 87% 30.27 in 5.0 mi North 11.5 mph - N/A   Overcast
7:35 PM 33.8 °F 26.4 °F 30.2 °F 87% 30.27 in 5.0 mi NNW 9.2 mph - N/A   Overcast
7:55 PM 33.8 °F 25.8 °F 32.0 °F 93% 30.27 in 10.0 mi North 10.4 mph - N/A   Overcast
8:15 PM 33.8 °F 24.8 °F 30.2 °F 87% 30.28 in 10.0 mi North 12.7 mph - N/A   Overcast
8:35 PM 33.8 °F 27.0 °F 30.2 °F 87% 30.28 in 7.0 mi NNW 8.1 mph - N/A   Overcast
8:55 PM 33.8 °F 27.7 °F 28.4 °F 81% 30.27 in 10.0 mi NW 6.9 mph - N/A   Overcast
9:15 PM 33.8 °F 27.7 °F 28.4 °F 81% 30.27 in 10.0 mi NW 6.9 mph - N/A   Overcast
9:35 PM 33.8 °F 27.0 °F 28.4 °F 81% 30.27 in 10.0 mi NW 8.1 mph - N/A   Overcast
9:55 PM 33.8 °F 27.0 °F 28.4 °F 81% 30.27 in 10.0 mi NNW 8.1 mph - N/A   Overcast
10:15 PM 33.8 °F 26.4 °F 28.4 °F 81% 30.27 in 10.0 mi NW 9.2 mph - N/A   Overcast
10:35 PM 33.8 °F 27.7 °F 28.4 °F 81% 30.27 in 10.0 mi NW 6.9 mph - N/A   Overcast
10:55 PM 33.8 °F 27.0 °F 26.6 °F 75% 30.27 in 10.0 mi NW 8.1 mph - N/A   Overcast
11:15 PM 33.8 °F 26.4 °F 26.6 °F 75% 30.27 in 10.0 mi NW 9.2 mph - N/A   Overcast
11:35 PM 35.6 °F 29.2 °F 26.6 °F 70% 30.27 in 10.0 mi NNW 8.1 mph - N/A   Overcast
11:55 PM 33.8 °F 27.0 °F 26.6 °F 75% 30.27 in 10.0 mi NNW 8.1 mph - N/A   Overcast